Location: Beadle
(51.4667°N, 109.0000°W)
Time: 15:11:34
(UTC+00:00)

DIWATA 2B (PO-101) - Pass Details

Date: 28 June 2022
Orbit: 583 x 599 km, 98.0° (Epoch: 19 August)

Event Time Altitude Azimuth Distance (km) Brightness Sun altitude
Exits shadow 09:15:54 12° 179° (S) 1,791 ? -11.0°
Maximum altitude 09:19:41 60° 258° (WSW) 694 ? -10.7°
Drops below altitude 10° 09:23:53 10° 339° (NNW) 1,954 ? -10.4°
Sets 09:26:06 0° 343° (NNW) 2,862 ? -10.2°
